Location: ???????
(55.7027°N, 37.3832°E)
Time: 08:24:02
(UTC+00:00)

Cosmos 2297 - Pass Details

Date: 14 April 2026
Orbit: 833 x 859 km, 71.0° (Epoch: 13 May)

Event Time Altitude Azimuth Distance (km) Brightness Sun altitude
Rises 20:05:56 0° 324° (NW) 3,445 8.2 -22.3°
Reaches altitude 10° 20:08:27 10° 320° (NW) 2,506 7.2 -22.4°
Maximum altitude 20:14:01 52° 246° (WSW) 1,061 4.1 -22.7°
Enters shadow 20:15:26 42° 202° (SSW) 1,209 4.1 -22.8°
